Weather past 2 weeks in Jamestown, Saint Helena

Now
68 °F

Overcast.


Feels Like: 68 °F
Forecast: 74 / 77 °F
Wind: 12 mph from Southeast

Location: Saint Helena Island

Current Time: Mar 30, 2015 at 10:53:19 AM

Latest Report: Mar 30, 2015 at 10:00 AM


Visibility: 31 mi

Pressure: 30.02 "Hg

Humidity: 86%

Dew point: 64 °F

Location of JamestownLocation

Historic Weather in Jamestown — Graph

°F

Jamestown temperature yesterday

Maximum temperature yesterday: 74 °F (at 11:00 AM)
Minimum temperature yesterday: 63 °F (at 7:00 AM)
Average temperature yesterday: 69 °F

Past Weeks' High & Low Weather Summary

 TemperatureHumidityPressure
High76 °F (Mar 19, 2:00 PM)99% (Mar 23, 4:00 AM)30.09 "Hg (Mar 23, 4:00 AM)
Low63 °F (Mar 29, 7:00 AM)58% (Mar 29, 11:00 AM)29.85 "Hg (Mar 19, 5:00 AM)
Average70 °F83%29.98 "Hg
* Reported Mar 15 10:00 AM — Mar 30 10:00 AM, Jamestown, Weather by CustomWeather, © 2015

Note: Actual official high and low records may vary slightly from our data, if they occured in-between our weather recording intervals... More about our weather records

Advertising

Jamestown weather history for previous 24 hours

 ConditionsComfort  
Time TempWeatherWind HumidityBarometerVisibility
10:00 AM
Mon, Mar 30
68 °FOvercast.12 mph86%30.02 "Hg31 mi
9:00 AM68 °FLow clouds.12 mph90%30.02 "Hg2 mi
8:00 AM69 °FMild.7 mph77%30.01 "HgN/A
7:00 AM66 °FMild.8 mph93%30.00 "HgN/A
6:00 AM64 °FMild.7 mph96%29.99 "HgN/A
5:00 AM64 °FMild.6 mph88%29.98 "HgN/A
4:00 AM66 °FMild.10 mph81%29.97 "HgN/A
3:00 AM66 °FMild.13 mph95%29.98 "HgN/A
2:00 AM64 °FMild.13 mph98%30.00 "HgN/A
1:00 AM67 °FMild.10 mph87%30.01 "HgN/A
11:00 PM
Sun, Mar 29
67 °FMild.12 mph84%30.03 "HgN/A
10:00 PM68 °FMild.12 mph84%30.03 "HgN/A
8:00 PM67 °FMild.8 mph84%29.98 "HgN/A
7:00 PM67 °FMild.8 mph86%29.97 "HgN/A
6:00 PM69 °FMild.10 mph82%29.96 "HgN/A
5:00 PM69 °FMild.10 mph84%29.95 "HgN/A
4:00 PM71 °FMild.12 mph83%29.94 "HgN/A
3:00 PM73 °FMild.10 mph71%29.95 "HgN/A
2:00 PM71 °FMild.12 mph75%29.97 "HgN/A
1:00 PM71 °FPartly sunny.15 mph72%29.99 "Hg37 mi
12:00 PM72 °FOvercast.13 mph76%30.01 "Hg37 mi
11:00 AM74 °FScattered clouds.12 mph58%30.02 "Hg37 mi
10:00 AM71 °FMild.12 mph69%30.03 "HgN/A
Weather by CustomWeather, © 2015

See weather overviewHow to use our weather pages